TimeMST,TemperatureF,Dew PointF,Humidity,Sea Level PressureIn,VisibilityMPH,Wind Direction,Wind SpeedMPH,Gust SpeedMPH,PrecipitationIn,Events,Conditions,WindDirDegrees,DateUTC
12:15 AM,34.9,25.5,69,29.79,10.0,Calm,Calm,-,N/A,,Overcast,0,2013-12-19 07:15:00
12:35 AM,33.6,25.9,73,29.79,10.0,Calm,Calm,-,N/A,,Overcast,0,2013-12-19 07:35:00
12:55 AM,34.5,25.5,70,29.77,10.0,Calm,Calm,-,N/A,,Overcast,0,2013-12-19 07:55:00
1:15 AM,32.7,26.8,79,29.76,10.0,East,3.5,-,N/A,,Overcast,80,2013-12-19 08:15:00
1:35 AM,32.0,26.4,80,29.76,10.0,Calm,Calm,-,N/A,,Overcast,0,2013-12-19 08:35:00
1:55 AM,31.6,26.4,81,29.76,10.0,Calm,Calm,-,N/A,,Overcast,0,2013-12-19 08:55:00
2:15 AM,29.3,25.2,85,29.75,10.0,Calm,Calm,-,N/A,,Overcast,0,2013-12-19 09:15:00
2:35 AM,31.8,24.8,75,29.75,10.0,Calm,Calm,-,N/A,,Overcast,0,2013-12-19 09:35:00
2:55 AM,36.0,23.4,60,29.74,10.0,SSW,9.2,-,N/A,,Overcast,200,2013-12-19 09:55:00
3:15 AM,37.9,22.8,55,29.74,10.0,SSW,12.7,18.4,N/A,,Overcast,210,2013-12-19 10:15:00
3:35 AM,38.1,22.8,54,29.73,10.0,SSW,13.8,23.0,N/A,,Overcast,210,2013-12-19 10:35:00
3:55 AM,38.5,22.6,53,29.72,10.0,SSW,19.6,25.3,N/A,,Overcast,210,2013-12-19 10:55:00
4:15 AM,37.4,27.0,66,29.69,7.0,SSE,11.5,33.4,N/A,Snow,Light Snow,160,2013-12-19 11:15:00
4:35 AM,35.8,30.7,82,29.69,10.0,South,13.8,23.0,N/A,,Overcast,190,2013-12-19 11:35:00
4:55 AM,36.7,30.9,80,29.68,10.0,South,9.2,17.3,N/A,,Overcast,190,2013-12-19 11:55:00
5:15 AM,38.3,31.8,77,29.67,10.0,SE,9.2,17.3,N/A,,Overcast,140,2013-12-19 12:15:00
5:35 AM,37.0,31.1,79,29.67,10.0,NNE,6.9,-,N/A,,Overcast,20,2013-12-19 12:35:00
5:55 AM,38.7,31.6,76,29.66,10.0,Calm,Calm,-,N/A,,Overcast,0,2013-12-19 12:55:00
6:15 AM,36.0,31.5,84,29.65,10.0,Calm,Calm,-,N/A,,Overcast,0,2013-12-19 13:15:00
6:35 AM,36.3,31.8,84,29.65,10.0,Calm,Calm,-,N/A,,Overcast,0,2013-12-19 13:35:00
6:55 AM,35.6,32.0,87,29.65,10.0,Calm,Calm,-,N/A,,Overcast,0,2013-12-19 13:55:00
7:15 AM,35.8,31.6,85,29.65,10.0,Calm,Calm,-,N/A,,Overcast,0,2013-12-19 14:15:00
7:35 AM,33.4,29.5,85,29.65,10.0,WSW,4.6,-,N/A,,Scattered Clouds,250,2013-12-19 14:35:00
7:55 AM,32.2,28.6,87,29.65,10.0,Calm,Calm,-,N/A,,Clear,0,2013-12-19 14:55:00
8:15 AM,31.6,28.2,87,29.65,10.0,Calm,Calm,-,N/A,,Clear,0,2013-12-19 15:15:00
8:35 AM,28.2,25.0,88,29.65,10.0,NNW,5.8,-,N/A,,Clear,340,2013-12-19 15:35:00
8:55 AM,31.1,27.3,86,29.65,10.0,NW,3.5,-,N/A,,Clear,320,2013-12-19 15:55:00
9:15 AM,33.6,29.1,84,29.66,10.0,Calm,Calm,-,N/A,,Clear,0,2013-12-19 16:15:00
9:35 AM,35.8,29.8,79,29.67,10.0,WSW,5.8,-,N/A,,Clear,250,2013-12-19 16:35:00
9:56 AM,37.6,30.0,74,29.67,10.0,WSW,3.5,-,N/A,,Clear,240,2013-12-19 16:56:00
10:15 AM,38.3,29.3,70,29.67,10.0,SW,5.8,-,N/A,,Clear,220,2013-12-19 17:15:00
10:35 AM,39.6,27.0,61,29.67,10.0,SW,10.4,-,N/A,,Clear,220,2013-12-19 17:35:00
10:55 AM,40.1,26.6,59,29.68,10.0,WSW,8.1,16.1,N/A,,Clear,240,2013-12-19 17:55:00
11:15 AM,41.0,27.5,59,29.67,10.0,WSW,8.1,-,N/A,,Clear,240,2013-12-19 18:15:00
11:35 AM,40.6,26.4,57,29.66,10.0,SW,10.4,-,N/A,,Clear,230,2013-12-19 18:35:00
11:55 AM,40.5,26.1,57,29.66,10.0,SW,10.4,-,N/A,,Clear,230,2013-12-19 18:55:00
12:15 PM,42.3,25.3,51,29.65,10.0,WSW,12.7,-,N/A,,Clear,240,2013-12-19 19:15:00
12:35 PM,41.4,26.1,55,29.65,10.0,WSW,10.4,16.1,N/A,,Scattered Clouds,250,2013-12-19 19:35:00
12:55 PM,40.3,28.6,63,29.66,10.0,West,8.1,-,N/A,,Overcast,270,2013-12-19 19:55:00
1:15 PM,41.2,26.4,56,29.66,10.0,WSW,12.7,-,N/A,,Mostly Cloudy,250,2013-12-19 20:15:00
1:35 PM,40.8,26.2,56,29.65,10.0,WSW,11.5,-,N/A,,Mostly Cloudy,240,2013-12-19 20:35:00
1:55 PM,40.5,26.6,58,29.65,10.0,SW,10.4,18.4,N/A,,Overcast,230,2013-12-19 20:55:00
2:15 PM,40.1,25.7,56,29.65,10.0,SW,20.7,26.5,N/A,,Overcast,220,2013-12-19 21:15:00
2:35 PM,39.6,25.2,56,29.65,10.0,SW,21.9,27.6,N/A,,Overcast,220,2013-12-19 21:35:00
2:55 PM,40.1,24.6,54,29.66,10.0,SW,21.9,28.8,N/A,,Overcast,220,2013-12-19 21:55:00
3:15 PM,39.9,24.8,55,29.66,10.0,SW,20.7,26.5,N/A,,Overcast,230,2013-12-19 22:15:00
3:35 PM,39.2,25.5,58,29.67,10.0,SW,16.1,-,N/A,,Overcast,220,2013-12-19 22:35:00
3:55 PM,39.2,25.5,58,29.69,10.0,SW,15.0,24.2,N/A,,Overcast,220,2013-12-19 22:55:00
4:15 PM,38.3,26.2,62,29.69,10.0,SSW,13.8,19.6,N/A,,Overcast,210,2013-12-19 23:15:00
4:35 PM,38.3,26.1,61,29.69,10.0,SSW,13.8,-,N/A,,Overcast,210,2013-12-19 23:35:00
4:55 PM,37.8,26.4,64,29.70,10.0,SSW,15.0,-,N/A,,Overcast,210,2013-12-19 23:55:00
5:15 PM,36.5,27.0,68,29.71,10.0,WNW,8.1,11.5,N/A,,Overcast,290,2013-12-20 00:15:00
5:35 PM,32.5,26.2,78,29.72,10.0,NW,8.1,-,N/A,,Overcast,320,2013-12-20 00:35:00
5:55 PM,32.5,26.1,77,29.73,10.0,WNW,5.8,-,N/A,,Overcast,300,2013-12-20 00:55:00
6:15 PM,30.9,25.7,81,29.73,10.0,WNW,10.4,-,N/A,,Overcast,290,2013-12-20 01:15:00
6:35 PM,28.0,24.6,87,29.75,10.0,WNW,6.9,-,N/A,,Overcast,300,2013-12-20 01:35:00
6:55 PM,28.4,25.0,87,29.76,10.0,WNW,9.2,-,N/A,,Overcast,290,2013-12-20 01:55:00
7:15 PM,25.9,21.7,84,29.76,10.0,West,8.1,-,N/A,,Overcast,270,2013-12-20 02:15:00
7:35 PM,24.8,21.2,86,29.76,2.5,West,6.9,-,N/A,Snow,Light Snow,260,2013-12-20 02:35:00
7:55 PM,23.9,20.3,86,29.77,5.0,WSW,6.9,-,N/A,Snow,Light Snow,240,2013-12-20 02:55:00
8:15 PM,23.5,20.3,87,29.76,10.0,West,5.8,-,N/A,Snow,Light Snow,260,2013-12-20 03:15:00
8:35 PM,22.1,19.2,89,29.77,10.0,West,6.9,-,N/A,,Overcast,270,2013-12-20 03:35:00
8:55 PM,21.7,18.5,87,29.77,10.0,West,4.6,-,N/A,Snow,Light Snow,260,2013-12-20 03:55:00
9:15 PM,21.2,18.5,89,29.77,10.0,West,4.6,-,N/A,Snow,Light Snow,270,2013-12-20 04:15:00
9:35 PM,21.2,18.1,88,29.77,10.0,WSW,4.6,-,N/A,Snow,Light Snow,250,2013-12-20 04:35:00
9:55 PM,20.8,17.6,87,29.78,10.0,West,8.1,-,N/A,,Overcast,260,2013-12-20 04:55:00
10:15 PM,20.5,17.2,87,29.78,10.0,Calm,Calm,-,N/A,,Overcast,0,2013-12-20 05:15:00
10:35 PM,20.5,17.4,88,29.78,7.0,West,4.6,-,N/A,Snow,Light Snow,270,2013-12-20 05:35:00
10:55 PM,20.1,16.9,87,29.78,7.0,West,8.1,-,N/A,Snow,Light Snow,270,2013-12-20 05:55:00
11:15 PM,19.6,16.2,87,29.78,5.0,West,3.5,-,N/A,Snow,Light Snow,260,2013-12-20 06:15:00
11:35 PM,19.2,16.3,89,29.78,2.5,West,4.6,-,N/A,Snow,Light Snow,260,2013-12-20 06:35:00
11:55 PM,18.7,16.3,91,29.77,1.5,WSW,4.6,-,N/A,Snow,Light Snow,240,2013-12-20 06:55:00